Waco, TX

3:16 AM CDT on September 28, 2016 (GMT -0500)
Waco Regional

Weather History for KACT - November, 2014

Change the Weather History Date:

Friday, November 21, 2014

  Actual Average Record
Temperature  
Mean Temperature 65 °F 55 °F  
Max Temperature 70 °F 66 °F 85 °F (1967)
Min Temperature 59 °F 44 °F 24 °F (1937)
Degree Days  
Heating Degree Days 0 10  
Month to date heating degree days 294 152  
Since 1 July heating degree days 306 219  
Cooling Degree Days 0 1  
Month to date cooling degree days 1 33  
Year to date cooling degree days 2744 2789  
Growing Degree Days 14 (Base 50)    
Moisture  
Dew Point 61 °F    
Average Humidity 89    
Maximum Humidity 100    
Minimum Humidity 78    
Precipitation  
Precipitation 0.02 in 0.08 in 1.21 in (2004)
Month to date precipitation 1.85 2.06  
Year to date precipitation 28.72 31.18  
Snow  
Snow 0.00 in 0.10 in T in (1972)
Month to date snowfall 0.0 0.1  
Since 1 July snowfall 0.0 0.1  
Since 1 September snowfall 0.0 0.1  
Snow Depth 0.00 in    
Sea Level Pressure  
Sea Level Pressure 30.06 in    
Wind  
Wind Speed 12 mph (SE)    
Max Wind Speed 22 mph    
Max Gust Speed 28 mph    
Visibility 6 miles    
Events Fog , Rain    
T = Trace of Precipitation, MM = Missing Value Source: NWS Daily Summary

Daily Weather History Graph

Daily Weather History Graph

Search for Another Location

Airport or City:

Trip Planner

Search our weather history database for the weather conditions in past years. The results will help you decide how hot, cold, wet, or windy it might be!

Date:

Astronomy

Nov. 21, 2014 Rise Set
Actual Time 7:02 AM CST 5:27 PM CST
Civil Twilight 6:36 AM CST 5:53 PM CST
Nautical Twilight 6:06 AM CST 6:22 PM CST
Astronomical Twilight 5:37 AM CST 6:52 PM CST
Moon 6:03 AM CST (11/21) 5:08 PM CST (11/21)
Length of Visible Light 11h 17m
Length of Day
10h 25m
Waning Crescent, 1% of the Moon is Illuminated
Nov 21
Waning Crescent
Nov 22
New
Nov 29
First Quarter
Dec 6
Full
Dec 14
Last Quarter

Hourly Weather History & Observations

Time (CST) Temp. Dew Point Humidity Pressure Visibility Wind Dir Wind Speed Gust Speed Precip Events Conditions
12:51 AM 60.1 °F 59.0 °F 96% 30.05 in 10.0 mi SSE 11.5 mph - N/A   Overcast
1:25 AM 60.1 °F 57.9 °F 93% 30.06 in 7.0 mi SSE 12.7 mph - N/A   Overcast
1:51 AM 60.1 °F 57.9 °F 93% 30.05 in 5.0 mi SSE 11.5 mph - N/A   Overcast
2:51 AM 59.0 °F 57.9 °F 96% 30.05 in 3.0 mi SSE 9.2 mph - N/A   Overcast
3:23 AM 59.0 °F 59.0 °F 100% 30.06 in 2.5 mi SSE 9.2 mph - N/A   Overcast
3:51 AM 59.0 °F 59.0 °F 100% 30.05 in 1.5 mi SSE 8.1 mph - N/A   Overcast
4:06 AM 59.0 °F 59.0 °F 100% 30.06 in 2.0 mi SSE 10.4 mph - N/A   Overcast
4:51 AM 59.0 °F 59.0 °F 100% 30.05 in 2.5 mi SE 8.1 mph - N/A   Overcast
5:20 AM 59.0 °F 59.0 °F 100% 30.06 in 1.5 mi SE 8.1 mph - N/A   Overcast
5:51 AM 59.0 °F 59.0 °F 100% 30.06 in 1.2 mi SE 6.9 mph - N/A   Overcast
6:51 AM 60.1 °F 59.0 °F 96% 30.07 in 1.8 mi SE 8.1 mph - N/A   Overcast
7:17 AM 60.1 °F 59.0 °F 96% 30.09 in 0.5 mi ESE 6.9 mph - N/A Fog Fog
7:32 AM 60.1 °F 60.1 °F 100% 30.09 in 0.2 mi SE 6.9 mph - N/A Fog Fog
7:51 AM 60.1 °F 60.1 °F 100% 30.09 in 0.2 mi SE 8.1 mph - N/A Fog Fog
8:15 AM 60.1 °F 60.1 °F 100% 30.10 in 0.5 mi SE 8.1 mph - N/A Fog Fog
8:51 AM 61.0 °F 61.0 °F 100% 30.11 in 0.5 mi SE 6.9 mph - N/A   Overcast
9:38 AM 62.1 °F 61.0 °F 96% 30.12 in 1.0 mi SE 9.2 mph - N/A   Overcast
9:51 AM 62.1 °F 62.1 °F 100% 30.12 in 1.0 mi SE 8.1 mph - N/A   Overcast
10:51 AM 64.0 °F 62.1 °F 93% 30.11 in 1.0 mi SE 10.4 mph - N/A   Overcast
11:51 AM 66.0 °F 63.0 °F 90% 30.09 in 1.0 mi SSE 9.2 mph - N/A   Overcast
11:55 AM 66.0 °F 63.0 °F 90% 30.10 in 5.0 mi SSE 10.4 mph - N/A   Overcast
12:04 PM 66.0 °F 62.1 °F 87% 30.10 in 6.0 mi SSE 10.4 mph - N/A   Overcast
12:51 PM 66.9 °F 62.1 °F 84% 30.06 in 6.0 mi SSE 11.5 mph - N/A   Haze
1:11 PM 69.1 °F 63.0 °F 81% 30.06 in 6.0 mi SSE 8.1 mph - N/A   Haze
1:19 PM 69.1 °F 63.0 °F 81% 30.05 in 6.0 mi South 10.4 mph - N/A   Haze
1:47 PM 69.8 °F 62.6 °F 78% 30.04 in 10.0 mi SSE 10.4 mph - N/A   Overcast
1:51 PM 70.0 °F 63.0 °F 78% 30.03 in 10.0 mi SSE 12.7 mph - N/A   Overcast
2:42 PM 69.1 °F 63.0 °F 81% 30.03 in 10.0 mi SSE 12.7 mph - N/A   Overcast
2:51 PM 69.1 °F 63.0 °F 81% 30.02 in 10.0 mi SSE 11.5 mph - N/A   Overcast
3:51 PM 68.0 °F 63.0 °F 84% 30.02 in 10.0 mi SSE 11.5 mph - N/A   Overcast
4:24 PM 68.0 °F 63.0 °F 84% 30.03 in 10.0 mi SE 11.5 mph - N/A   Mostly Cloudy
4:34 PM 68.0 °F 63.0 °F 84% 30.03 in 10.0 mi SE 13.8 mph - N/A   Mostly Cloudy
4:51 PM 68.0 °F 63.0 °F 84% 30.02 in 10.0 mi SE 15.0 mph - N/A   Overcast
5:51 PM 66.9 °F 63.0 °F 87% 30.03 in 10.0 mi SE 12.7 mph - N/A   Overcast
6:17 PM 66.9 °F 63.0 °F 87% 30.05 in 10.0 mi SE 18.4 mph - N/A   Overcast
6:51 PM 66.0 °F 63.0 °F 90% 30.04 in 10.0 mi SE 16.1 mph - N/A   Overcast
7:17 PM 66.0 °F 63.0 °F 90% 30.05 in 10.0 mi SE 15.0 mph - 0.00 in Rain Light Rain
7:43 PM 66.0 °F 63.0 °F 90% 30.05 in 10.0 mi SE 16.1 mph 23.0 mph 0.00 in   Overcast
7:51 PM 66.0 °F 62.1 °F 87% 30.04 in 10.0 mi SE 13.8 mph 25.3 mph 0.00 in   Overcast
8:09 PM 66.0 °F 63.0 °F 90% 30.05 in 10.0 mi SE 11.5 mph 23.0 mph N/A   Overcast
8:51 PM 66.0 °F 63.0 °F 90% 30.06 in 7.0 mi SSE 17.3 mph - 0.00 in Rain Light Rain
9:51 PM 64.9 °F 63.0 °F 93% 30.06 in 9.0 mi SE 17.3 mph - 0.00 in Rain Light Rain
10:23 PM 64.9 °F 63.0 °F 93% 30.08 in 8.0 mi SE 13.8 mph - 0.01 in Rain Light Rain
10:30 PM 64.9 °F 63.0 °F 93% 30.08 in 9.0 mi SSE 13.8 mph - 0.01 in Rain Light Rain
10:51 PM 64.9 °F 62.1 °F 90% 30.06 in 7.0 mi SSE 17.3 mph - 0.02 in Rain Light Rain
11:11 PM 64.9 °F 62.1 °F 90% 30.07 in 10.0 mi SE 17.3 mph - 0.00 in   Overcast
11:51 PM 66.0 °F 62.1 °F 87% 30.06 in 10.0 mi SSE 16.1 mph 21.9 mph 0.00 in   Overcast